Temperature
26 25 24 23 22 22 21 21 21 20 20 20 20 20 19 19 19 19 19 19 19 19 18 18 18 18 18 18 18 18 18 18 18 18 18 18 18 18 18 18 18 18 18
26 25 24 24 23 22 21 21 21 20 20 20 20 20 19 19 19 19 19 19 19 18 18 18 18 18 18 18 18 18 18 18 18 18 18 18 18 18 18 18 18 18 18
26 25 25 24 23 22 21 21 21 20 20 20 20 19 19 19 19 19 19 19 18 18 18 18 18 18 18 18 18 18 18 18 18 18 18 18 18 18 18 18 18 18 18
27 26 25 24 23 22 21 21 21 20 20 20 20 19 19 19 19 19 19 18 18 18 18 18 18 18 18 18 18 18 18 18 18 18 19 19 19 18 18 18 18 18 18
28 26 25 24 23 23 22 21 20 20 20 20 19 19 19 19 19 18 18 18 18 18 18 18 18 18 18 18 18 18 18 18 18 18 18 18 18 19 18 18 18 18 18
28 27 26 24 24 23 22 21 20 20 20 19 19 19 19 19 18 18 18 18 18 18 18 18 18 18 18 18 18 17 18 18 18 18 18 18 18 18 18 18 18 18 18
28 27 25 24 24 23 22 21 20 20 20 19 19 19 19 18 18 18 18 18 18 17 17 17 17 17 17 17 17 17 17 17 18 18 18 18 18 18 18 18 18 18 18
28 27 25 24 23 23 22 21 20 20 19 19 19 19 19 18 18 18 18 18 18 17 17 17 17 17 17 17 17 17 17 17 17 17 17 18 18 18 18 18 18 18 17
28 27 26 25 24 23 22 21 20 20 19 19 19 19 18 18 18 18 18 17 17 17 17 17 17 17 17 17 17 17 17 17 17 17 17 17 17 17 18 18 18 17 17
28 27 26 25 24 23 22 21 20 20 19 19 19 19 18 18 18 18 17 17 17 17 17 17 17 17 17 16 16 16 16 16 16 17 17 17 17 17 17 17 17 17 17
27 27 26 25 24 23 22 21 20 20 19 19 19 18 18 18 17 17 17 17 17 17 17 17 17 16 16 16 16 16 16 16 16 16 16 16 16 17 17 17 17 17 17
27 26 25 25 24 23 22 21 20 20 19 19 19 18 18 18 17 17 17 17 17 16 16 16 16 16 16 16 16 16 16 16 16 16 16 16 16 16 16 16 16 16 16
26 25 25 24 23 23 22 21 20 20 19 19 18 18 18 18 17 17 17 16 16 16 16 16 16 16 16 16 16 16 16 16 16 16 15 16 15 15 15 15 16 16 16
26 25 24 23 22 22 21 21 20 20 19 19 18 18 18 17 17 17 17 16 16 16 16 16 16 16 16 16 16 15 15 15 15 15 15 15 15 15 15 15 15 15 15
25 24 23 22 22 21 21 20 20 19 19 19 18 18 18 17 17 17 16 16 16 16 16 16 15 15 15 15 15 15 15 15 15 15 15 14 14 14 15 15 15 15 15
25 23 23 22 21 21 20 20 19 19 19 18 18 18 17 17 17 17 16 16 16 15 15 15 15 15 15 15 15 15 15 15 15 14 14 14 14 14 14 14 14 14 14
24 23 22 21 21 20 20 19 19 19 18 18 18 17 17 17 17 16 16 16 15 15 15 15 15 15 15 15 15 15 15 14 14 14 14 14 14 14 14 14 14 14 14
22 22 21 21 20 20 19 19 18 18 18 17 17 17 17 16 16 16 16 15 15 15 15 15 15 15 15 15 15 14 14 14 14 14 14 14 13 13 13 13 13 13 13
22 21 21 20 20 20 19 19 18 18 17 17 17 16 16 16 16 16 15 15 15 15 15 15 14 14 14 14 14 14 14 14 14 14 13 13 13 13 13 13 13 13 13
20 20 20 20 20 19 19 18 18 17 17 17 16 16 16 16 15 15 15 15 15 15 14 14 14 14 14 14 14 14 14 13 13 13 13 13 13 13 12 12 12 12 12
19 19 19 19 19 18 18 18 17 17 17 16 16 16 16 16 15 15 15 14 14 14 14 14 14 14 14 14 14 13 13 13 13 12 12 12 12 12 12 12 12 12 12
19 18 18 18 18 18 18 17 17 16 16 16 16 16 15 15 15 15 14 14 14 14 14 13 13 13 13 13 13 13 12 12 12 12 12 12 12 12 12 12 12 12 11
18 18 18 17 17 17 17 16 16 16 15 15 15 15 15 15 14 14 14 14 14 13 13 13 13 13 13 13 12 12 12 12 12 11 11 11 12 12 12 11 12 11 11
17 17 17 17 17 16 16 16 15 15 15 15 15 15 14 14 14 14 14 14 14 13 13 13 13 13 12 12 12 12 12 11 11 11 11 11 11 11 11 11 11 11 11
17 16 16 16 16 16 16 15 15 15 14 14 14 14 14 14 14 14 13 13 13 13 13 13 13 12 12 12 12 12 11 11 11 11 11 11 11 11 11 11 11 11 11
16 16 16 16 15 15 15 15 14 14 14 14 14 14 14 14 14 13 13 13 13 13 13 13 13 12 12 12 11 11 11 11 11 11 11 10 10 10 10 10 10 11 11
Wind_Speed
10 10 10 10 9 9 7 6 4 4 3 2 2 2 2 3 3 3 4 4 5 5 4 4 4 3 3 3 2 2 2 2 2 2 2 2 2 2 2 1 1 2 5
12 11 10 9 9 9 7 6 5 4 3 2 1 2 2 2 3 4 4 5 5 4 4 4 3 3 3 3 2 2 2 2 2 1 1 1 1 1 2 2 2 2 3
12 11 10 9 10 9 7 6 5 5 3 2 2 2 2 2 3 4 4 4 4 4 4 4 3 3 2 2 2 2 2 1 1 1 0 1 1 1 1 1 1 2 2
13 12 12 10 8 9 8 8 6 5 3 2 2 2 3 3 3 3 3 3 3 4 4 3 3 3 3 3 2 3 2 1 1 1 0 0 1 1 0 1 1 1 1
12 11 13 11 10 10 10 8 7 5 4 3 3 3 3 3 3 2 3 3 3 4 3 3 3 3 2 3 3 3 3 2 2 2 1 1 1 1 1 1 1 0 0
11 11 12 11 9 10 10 9 7 5 4 3 3 3 3 2 3 3 3 2 2 3 3 3 3 3 3 2 3 2 3 3 3 3 2 1 1 1 0 1 1 1 0
11 11 11 11 9 9 10 10 8 6 5 4 3 2 2 3 3 2 2 2 2 2 3 3 2 2 2 2 2 2 2 2 3 3 3 3 2 1 1 0 1 1 1
11 11 11 10 10 10 10 10 9 6 5 4 3 2 2 2 2 2 1 2 2 2 3 2 2 2 2 2 2 2 1 1 2 3 3 3 3 2 1 0 1 0 1
11 12 12 12 11 10 10 10 9 7 6 5 4 3 2 2 2 2 2 2 2 2 3 2 2 1 1 2 2 2 2 2 2 3 3 3 3 2 2 2 1 1 1
9 10 10 11 11 11 10 10 9 7 5 5 4 4 2 2 2 2 3 3 3 3 2 2 1 1 1 1 1 2 2 2 2 2 2 3 3 3 2 2 2 1 1
6 8 9 9 10 11 11 10 9 7 6 5 4 4 3 2 2 2 2 3 2 2 2 1 1 1 1 1 1 2 1 2 3 3 2 2 3 3 3 3 3 2 1
7 7 9 9 9 10 10 9 9 8 7 6 5 4 3 3 3 3 2 2 1 1 1 1 1 1 1 1 2 3 2 2 2 3 3 3 3 3 3 3 3 2 2
8 7 7 8 7 8 8 8 7 7 7 7 6 5 4 3 3 2 2 2 1 1 0 1 1 2 2 2 2 2 2 2 2 2 2 2 3 3 3 3 3 2 2
7 7 7 7 7 7 7 6 6 5 6 6 6 5 4 3 3 2 2 2 1 1 0 1 1 1 2 2 2 2 2 1 2 2 2 2 2 2 3 2 3 3 2
5 6 6 6 6 6 6 6 5 4 4 5 5 5 4 3 3 2 2 1 1 1 1 0 1 1 1 2 2 2 2 2 2 2 1 1 1 1 2 2 2 3 3
4 5 6 6 6 6 6 6 5 5 5 4 4 4 3 3 2 2 2 2 1 0 0 0 1 1 2 5 5 3 2 2 1 2 2 1 1 1 1 1 2 2 3
4 5 5 6 6 6 6 5 5 4 4 4 3 3 3 3 2 2 1 1 2 1 0 1 2 2 3 5 6 5 3 2 1 1 2 2 2 3 2 2 3 3 2
5 4 4 4 5 6 6 5 5 5 4 4 3 2 2 2 2 1 1 0 0 0 1 1 1 2 2 4 5 6 3 2 2 2 1 1 1 2 2 3 2 3 3
5 4 3 3 4 5 5 5 5 5 4 3 2 1 1 1 1 1 1 1 1 0 1 1 1 2 1 4 5 6 3 2 2 1 1 1 0 1 2 2 2 3 4
5 4 3 4 4 4 5 5 5 4 3 2 2 1 1 1 1 1 1 0 0 1 1 1 1 2 1 2 4 5 3 2 2 1 1 2 2 2 1 2 3 4 4
6 5 4 4 5 4 4 4 3 3 3 3 2 1 1 1 1 1 1 1 1 1 1 1 1 1 1 1 2 3 2 3 3 2 1 0 2 2 3 3 4 5 5
5 4 4 5 5 5 4 3 3 3 2 2 2 1 1 1 1 1 1 1 1 1 1 2 1 1 2 1 0 1 2 3 3 3 2 2 3 4 5 5 5 7 6
5 4 3 5 4 4 4 3 3 3 2 2 1 1 2 1 1 1 1 1 2 2 2 2 1 1 1 1 1 1 2 3 2 3 5 6 6 5 4 5 6 5 4
5 4 4 5 4 3 3 3 3 2 1 1 1 1 2 2 1 0 0 0 0 1 1 1 1 1 1 2 2 1 1 2 2 3 5 6 7 6 5 4 3 3 4
5 4 3 3 3 3 3 2 2 2 1 1 1 1 1 1 2 1 1 1 2 1 0 1 2 2 2 2 3 3 3 3 3 3 3 3 3 2 2 2 3 3 3
4 3 2 2 3 3 3 3 2 2 1 0 1 1 1 1 1 2 2 4 1 2 3 1 1 1 1 1 3 4 6 6 4 2 3 3 3 3 3 3 4 3 3
Wind_Direction
145 143 144 141 134 126 119 117 115 106 103 86 86 85 81 87 87 92 81 70 63 59 47 53 47 46 60 66 58 45 46 41 63 78 81 92 110 116 121 121 118 135 137
145 146 151 147 138 131 132 136 125 113 102 96 102 117 108 99 94 78 84 74 69 64 61 54 49 49 51 45 45 43 26 29 52 70 94 76 62 57 114 131 146 133 130
155 153 152 148 145 142 141 130 112 109 105 101 97 90 100 81 82 84 80 68 68 68 59 50 47 41 46 42 38 22 24 10 5 48 60 108 121 57 47 59 86 83 124
156 155 155 152 147 144 138 124 116 106 99 98 96 109 103 94 85 89 93 90 84 82 76 67 50 37 41 41 9 36 355 337 314 296 318 93 117 140 144 350 72 107 142
153 154 153 151 151 149 139 131 121 115 108 105 90 91 95 97 91 94 92 92 90 85 70 64 51 52 47 31 25 16 2 349 345 343 354 358 276 236 176 197 196 182 166
145 146 144 145 148 145 139 134 125 123 119 111 100 97 92 95 112 116 120 109 101 93 79 75 46 40 35 25 16 5 359 358 354 350 345 335 321 298 213 215 192 173 215
145 145 142 149 146 143 138 132 131 134 134 127 116 120 129 124 118 124 122 107 97 91 79 69 55 45 30 19 14 358 349 358 350 341 337 340 323 305 296 147 202 228 223
150 147 145 145 147 144 138 138 139 142 143 138 130 132 144 120 104 93 92 90 74 86 94 84 68 49 13 15 5 342 341 5 334 331 341 326 324 331 336 237 189 246 256
151 150 150 152 151 146 143 143 141 145 148 142 138 128 118 97 98 93 72 72 74 90 92 83 65 47 22 21 3 349 357 348 328 328 336 325 322 339 337 330 316 230 253
145 147 149 153 153 151 143 140 138 142 142 142 147 139 128 105 95 88 87 67 52 55 79 76 53 26 8 5 347 340 344 347 340 330 13 354 330 345 345 340 327 308 281
149 142 140 144 149 149 147 145 144 145 149 150 139 123 129 127 123 105 91 88 66 51 53 41 29 28 3 5 350 327 355 349 338 341 10 356 354 356 349 351 351 351 354
143 137 137 142 145 149 148 147 149 154 155 145 136 134 142 144 133 126 120 117 116 91 56 17 0 339 19 22 358 334 359 351 350 354 1 357 353 356 348 352 357 352 332
124 122 127 131 136 133 130 141 151 156 152 144 141 144 151 147 144 141 144 144 136 123 83 37 3 344 1 14 1 344 341 352 358 348 352 360 359 350 352 351 345 334 330
121 118 113 112 114 119 125 134 143 152 151 145 148 150 156 152 152 155 157 148 146 137 67 16 344 348 8 360 352 346 332 357 356 349 359 1 12 348 334 333 339 336 340
118 115 117 117 118 121 126 132 136 133 134 143 149 147 150 154 155 161 159 152 159 159 126 14 336 337 0 353 357 338 336 347 342 340 337 349 34 31 356 350 349 343 336
121 116 111 119 134 137 135 134 137 136 134 135 137 137 145 145 151 162 169 160 167 156 149 312 32 10 13 13 9 0 335 319 319 324 321 321 34 24 20 6 328 311 308
98 110 124 138 149 141 135 141 144 141 136 133 138 150 157 167 173 191 157 170 186 190 156 88 82 64 27 12 4 353 324 307 312 316 309 308 341 33 4 335 338 337 306
108 105 117 127 139 146 151 150 150 141 134 136 144 151 165 170 170 158 143 163 137 153 148 127 104 89 23 9 353 336 306 292 284 284 291 308 0 356 344 317 324 315 313
99 103 116 121 133 145 145 146 145 140 137 139 142 156 156 157 175 177 180 180 164 119 137 115 95 95 28 6 357 342 290 294 304 290 332 349 54 8 343 312 300 295 291
61 72 82 106 116 119 132 137 138 133 135 134 122 122 146 166 177 184 177 142 177 154 153 111 89 91 64 11 359 347 314 317 310 302 85 52 43 21 352 297 290 286 292
70 68 74 81 86 88 97 119 128 131 129 121 120 114 108 150 161 145 139 168 186 149 139 133 146 129 123 70 19 14 344 327 316 309 314 70 14 342 303 278 263 265 281
79 73 72 82 84 87 90 94 90 95 109 120 128 140 138 217 153 133 148 160 171 188 195 202 208 172 160 151 144 3 334 334 326 320 334 345 331 313 298 283 266 270 278
74 69 80 93 89 87 91 88 75 82 97 113 132 162 156 131 112 162 173 175 194 223 226 222 225 188 153 148 181 235 293 311 305 315 328 318 307 301 289 276 272 268 263
64 67 92 94 86 77 79 80 84 87 121 144 149 162 146 141 123 122 180 227 256 277 295 299 316 58 57 44 28 344 305 303 301 306 312 304 285 277 278 287 287 259 261
73 66 75 99 100 89 83 80 81 90 92 163 188 185 155 140 121 95 41 25 24 61 7 336 351 355 353 10 6 352 337 332 334 320 303 303 302 305 295 286 282 282 285
83 82 68 88 108 104 89 74 71 81 81 314 239 208 153 144 159 135 77 49 78 106 118 152 195 266 275 263 294 299 298 297 300 305 288 295 300 305 309 304 292 287 294
Height
1491 1494 1496 1498 1500 1501 1502 1503 1504 1505 1505 1506 1506 1506 1507 1507 1508 1508 1507 1507 1507 1507 1507 1507 1507 1507 1507 1507 1508 1507 1508 1509 1510 1510 1511 1512 1513 1514 1515 1516 1516 1517 1518
1489 1493 1495 1498 1500 1501 1502 1503 1504 1505 1506 1506 1507 1508 1508 1509 1509 1509 1509 1509 1509 1509 1509 1509 1509 1509 1509 1508 1509 1509 1509 1510 1511 1512 1512 1513 1515 1515 1516 1516 1517 1518 1518
1487 1491 1494 1497 1499 1501 1502 1503 1504 1505 1506 1507 1507 1508 1509 1509 1510 1510 1510 1510 1510 1510 1510 1510 1510 1510 1510 1510 1510 1510 1510 1511 1512 1513 1514 1514 1514 1515 1516 1516 1517 1517 1518
1484 1488 1492 1496 1499 1501 1502 1503 1504 1505 1506 1507 1507 1508 1509 1509 1510 1510 1510 1511 1511 1511 1511 1511 1511 1511 1511 1511 1511 1511 1511 1512 1512 1513 1514 1514 1515 1515 1516 1517 1516 1517 1517
1482 1486 1490 1494 1497 1500 1501 1502 1504 1505 1506 1506 1507 1508 1509 1510 1510 1511 1511 1511 1511 1511 1511 1511 1511 1511 1511 1511 1511 1511 1511 1512 1512 1513 1513 1514 1514 1515 1515 1515 1516 1516 1516
1481 1486 1490 1493 1496 1499 1501 1502 1503 1504 1505 1506 1507 1508 1509 1510 1510 1511 1511 1512 1512 1512 1511 1511 1511 1511 1511 1511 1511 1511 1511 1512 1512 1512 1513 1513 1514 1514 1514 1514 1515 1515 1515
1480 1485 1489 1493 1496 1498 1500 1501 1503 1504 1505 1506 1507 1508 1509 1509 1510 1511 1511 1512 1512 1512 1512 1512 1511 1511 1511 1511 1511 1511 1511 1511 1511 1512 1512 1513 1513 1513 1513 1513 1513 1514 1514
1479 1483 1488 1491 1495 1497 1500 1501 1502 1504 1505 1506 1507 1507 1508 1510 1510 1511 1511 1512 1512 1512 1512 1512 1512 1511 1511 1511 1510 1510 1510 1510 1511 1511 1511 1511 1512 1512 1512 1513 1513 1513 1513
1477 1482 1486 1490 1494 1497 1499 1501 1502 1503 1505 1506 1507 1507 1509 1510 1510 1511 1511 1512 1512 1512 1511 1511 1511 1511 1510 1510 1510 1510 1509 1509 1510 1510 1510 1510 1511 1511 1511 1511 1512 1512 1512
1477 1481 1485 1488 1492 1496 1498 1500 1501 1503 1504 1506 1507 1508 1509 1510 1510 1511 1511 1511 1511 1511 1511 1511 1510 1510 1510 1509 1509 1508 1508 1509 1509 1509 1509 1509 1509 1509 1509 1509 1510 1510 1510
1477 1480 1484 1487 1491 1494 1497 1499 1500 1502 1504 1505 1506 1507 1508 1509 1510 1510 1510 1510 1510 1510 1510 1510 1510 1509 1509 1508 1508 1508 1507 1507 1507 1507 1507 1507 1507 1507 1507 1507 1508 1508 1508
1477 1480 1483 1486 1490 1493 1496 1498 1500 1501 1503 1504 1505 1506 1507 1508 1509 1509 1509 1510 1510 1509 1509 1509 1509 1509 1508 1507 1507 1507 1506 1506 1505 1505 1505 1505 1505 1505 1505 1505 1505 1506 1506
1477 1480 1483 1486 1489 1491 1494 1496 1499 1501 1502 1503 1504 1506 1506 1507 1508 1508 1509 1509 1509 1509 1509 1508 1508 1508 1507 1507 1506 1506 1505 1505 1504 1504 1503 1503 1503 1503 1503 1504 1504 1504 1504
1477 1480 1483 1485 1488 1490 1492 1495 1498 1500 1502 1502 1503 1504 1505 1506 1507 1507 1507 1508 1508 1508 1508 1508 1507 1506 1506 1505 1505 1504 1504 1504 1503 1503 1502 1502 1502 1502 1502 1502 1502 1502 1502
1478 1480 1483 1485 1488 1490 1492 1494 1497 1499 1500 1501 1502 1503 1504 1505 1505 1506 1506 1506 1506 1507 1506 1506 1506 1505 1504 1504 1503 1503 1503 1502 1501 1501 1500 1500 1500 1500 1500 1500 1500 1500 1500
1479 1481 1482 1485 1488 1490 1491 1494 1496 1498 1499 1500 1501 1502 1503 1503 1504 1505 1505 1505 1505 1505 1505 1505 1504 1504 1503 1502 1502 1501 1500 1500 1499 1499 1498 1498 1498 1498 1497 1497 1498 1498 1498
1479 1481 1482 1485 1487 1489 1491 1492 1494 1496 1497 1498 1499 1500 1501 1502 1503 1503 1503 1503 1503 1503 1503 1503 1502 1502 1501 1501 1500 1499 1499 1498 1497 1496 1496 1496 1496 1495 1495 1495 1495 1495 1495
1478 1480 1482 1485 1487 1489 1490 1492 1493 1494 1495 1497 1498 1498 1499 1500 1500 1501 1501 1501 1501 1501 1501 1501 1500 1500 1499 1499 1498 1497 1497 1496 1495 1495 1494 1493 1493 1492 1492 1492 1492 1492 1492
1477 1480 1481 1483 1486 1488 1489 1491 1492 1493 1494 1495 1496 1497 1498 1498 1498 1499 1499 1499 1499 1499 1499 1499 1498 1498 1497 1497 1496 1495 1494 1494 1493 1492 1491 1491 1490 1489 1489 1489 1488 1488 1488
1478 1479 1482 1483 1485 1487 1488 1490 1491 1492 1493 1494 1494 1495 1496 1496 1496 1496 1496 1497 1497 1497 1497 1497 1496 1496 1495 1494 1494 1493 1492 1491 1491 1490 1489 1488 1487 1486 1486 1486 1485 1485 1485
1479 1480 1482 1482 1484 1486 1488 1489 1490 1491 1491 1492 1493 1493 1494 1494 1494 1494 1494 1495 1495 1495 1495 1494 1494 1493 1493 1492 1491 1490 1489 1489 1488 1488 1487 1485 1485 1484 1483 1483 1483 1482 1482
1479 1481 1482 1483 1484 1485 1486 1487 1489 1489 1490 1491 1491 1492 1492 1492 1493 1492 1492 1493 1493 1493 1493 1492 1492 1492 1491 1490 1489 1488 1487 1486 1486 1485 1485 1484 1483 1482 1481 1480 1480 1480 1480
1480 1481 1482 1483 1484 1485 1486 1486 1487 1488 1489 1489 1490 1490 1491 1491 1491 1491 1491 1491 1491 1491 1492 1492 1491 1490 1489 1489 1487 1487 1486 1485 1484 1483 1482 1482 1480 1479 1478 1478 1478 1478 1477
1481 1481 1482 1483 1484 1485 1485 1486 1486 1487 1488 1488 1488 1489 1489 1489 1489 1489 1489 1490 1489 1489 1490 1490 1490 1489 1488 1487 1486 1485 1484 1483 1482 1481 1480 1479 1478 1477 1476 1476 1476 1476 1475
1482 1482 1483 1483 1484 1484 1484 1485 1485 1486 1486 1487 1487 1487 1487 1488 1488 1488 1488 1488 1488 1488 1488 1488 1488 1487 1486 1485 1484 1483 1482 1481 1480 1479 1478 1476 1476 1475 1474 1474 1473 1473 1473
1482 1482 1483 1484 1483 1483 1483 1484 1484 1485 1485 1485 1486 1486 1486 1486 1486 1486 1486 1487 1487 1487 1486 1486 1485 1484 1484 1483 1482 1482 1481 1480 1479 1478 1476 1475 1474 1474 1473 1472 1471 1471 1470